,,Stat6,,Stat2,,Stat8,,Stat9,,Stat10,,Wind1,,Wind1,
time,status,PA1M_AVG,status,PR1M_SUM,status,RH1M_AVG,status,SR1M_AVG,status,TA1M_AVG,status,W1dAve1m,status,W1sAve1m,
2007-12-21, 07:00:01,VALID,917.508,VALID,0,VALID,100,VALID,54.7462,VALID,19.2422,VALID,117,VALID,0.940341,
2007-12-21, 07:01:00,VALID,917.546,VALID,0,VALID,100,VALID,55.9349,VALID,19.2621,VALID,111,VALID,0.896621,
2007-12-21, 07:02:00,VALID,917.573,VALID,0,VALID,100,VALID,57.616,VALID,19.2816,VALID,120,VALID,1.00408,
2007-12-21, 07:03:00,VALID,917.599,VALID,0,VALID,100,VALID,64.4423,VALID,19.3212,VALID,123,VALID,0.826736,
2007-12-21, 07:04:00,VALID,917.615,VALID,0,VALID,100,VALID,66.2932,VALID,19.3402,VALID,135,VALID,1.04588,
2007-12-21, 07:05:00,VALID,917.63,VALID,0,VALID,100,VALID,63.7121,VALID,19.3497,VALID,135,VALID,0.831826,
2007-12-21, 07:06:00,VALID,917.651,VALID,0,VALID,100,VALID,69.4686,VALID,19.3824,VALID,147,VALID,0.968178,
2007-12-21, 07:07:00,VALID,917.657,VALID,0,VALID,100,VALID,71.3874,VALID,19.4315,VALID,146,VALID,0.669744,
2007-12-21, 07:08:00,VALID,917.672,VALID,0,VALID,100,VALID,73.3402,VALID,19.464,VALID,161,VALID,0.596413,
2007-12-21, 07:09:00,VALID,917.687,VALID,0,VALID,100,VALID,75.31,VALID,19.4869,VALID,154,VALID,0.736133,
2007-12-21, 07:10:00,VALID,917.697,VALID,0,VALID,99.8878,VALID,77.3647,VALID,19.5256,VALID,152,VALID,0.740385,
2007-12-21, 07:11:00,VALID,917.72,VALID,0,VALID,99.5984,VALID,79.3684,VALID,19.5254,VALID,148,VALID,0.932884,
2007-12-21, 07:12:00,VALID,917.741,VALID,0,VALID,99.3975,VALID,81.2363,VALID,19.5396,VALID,152,VALID,1.15589,
2007-12-21, 07:13:00,VALID,917.757,VALID,0,VALID,99.4776,VALID,61.7083,VALID,19.5728,VALID,160,VALID,0.575945,
2007-12-21, 07:14:00,VALID,917.769,VALID,0,VALID,99.4624,VALID,58.0065,VALID,19.6149,VALID,164,VALID,0.694141,
2007-12-21, 07:15:00,VALID,917.791,VALID,0,VALID,99.4013,VALID,84.8532,VALID,19.6499,VALID,162,VALID,0.633013,
2007-12-21, 07:16:00,VALID,917.805,VALID,0,VALID,99.3479,VALID,87.2815,VALID,19.6891,VALID,160,VALID,0.836914,
2007-12-21, 07:17:00,VALID,917.829,VALID,0,VALID,99.3021,VALID,89.8626,VALID,19.7215,VALID,167,VALID,0.673874,
2007-12-21, 07:18:00,VALID,917.834,VALID,0,VALID,99.3352,VALID,90.7116,VALID,19.7537,VALID,169,VALID,0.687691,
2007-12-21, 07:19:00,VALID,917.852,VALID,0,VALID,99.0923,VALID,95.2455,VALID,19.7931,VALID,172,VALID,0.913681,
2007-12-21, 07:20:00,VALID,917.875,VALID,0,VALID,98.894,VALID,100.187,VALID,19.7862,VALID,162,VALID,0.908026,
2007-12-21, 07:21:00,VALID,917.887,VALID,0,VALID,98.9003,VALID,103.787,VALID,19.8194,VALID,162,VALID,0.602471,
2007-12-21, 07:22:00,VALID,917.91,VALID,0,VALID,98.913,VALID,107.319,VALID,19.8713,VALID,163,VALID,0.439303,
2007-12-21, 07:23:00,VALID,917.927,VALID,0,VALID,98.8838,VALID,108.762,VALID,19.9132,VALID,148,VALID,0.29082,
2007-12-21, 07:24:00,VALID,917.943,VALID,0,VALID,98.4756,VALID,109.662,VALID,19.9424,VALID,152,VALID,0.819602,
2007-12-21, 07:25:00,VALID,917.96,VALID,0,VALID,97.9314,VALID,109.934,VALID,19.9294,VALID,155,VALID,1.00465,
2007-12-21, 07:26:00,VALID,917.989,VALID,0,VALID,97.9466,VALID,109.917,VALID,19.9621,VALID,155,VALID,0.915551,
2007-12-21, 07:27:00,VALID,918.001,VALID,0,VALID,97.5066,VALID,110.036,VALID,19.9611,VALID,152,VALID,1.13972,
2007-12-21, 07:28:00,VALID,918.031,VALID,0,VALID,97.5588,VALID,109.645,VALID,19.9736,VALID,151,VALID,1.03069,
2007-12-21, 07:29:00,VALID,918.053,VALID,0,VALID,97.4342,VALID,108.66,VALID,19.9998,VALID,157,VALID,0.993118,
2007-12-21, 07:30:00,VALID,918.075,VALID,0,VALID,97.3439,VALID,100.577,VALID,20.0255,VALID,150,VALID,1.06516,
2007-12-21, 07:31:00,VALID,918.085,VALID,0,VALID,97.2307,VALID,82.2042,VALID,20.032,VALID,155,VALID,0.948785,
2007-12-21, 07:32:00,VALID,918.1,VALID,0,VALID,97.3172,VALID,96.9436,VALID,20.0547,VALID,156,VALID,0.77096,
2007-12-21, 07:33:00,VALID,918.125,VALID,0,VALID,97.4367,VALID,99.7794,VALID,20.0969,VALID,155,VALID,0.54524,
2007-12-21, 07:34:00,VALID,918.135,VALID,0,VALID,97.4977,VALID,104.5,VALID,20.1391,VALID,161,VALID,0.621094,
2007-12-21, 07:35:00,VALID,918.158,VALID,0,VALID,97.3986,VALID,104.313,VALID,20.191,VALID,151,VALID,0.551417,
2007-12-21, 07:36:00,VALID,918.18,VALID,0,VALID,97.2536,VALID,104.551,VALID,20.2172,VALID,169,VALID,0.66495,
2007-12-21, 07:37:00,VALID,918.209,VALID,0,VALID,97.0654,VALID,104.992,VALID,20.2367,VALID,174,VALID,0.743555,
2007-12-21, 07:38:00,VALID,918.237,VALID,0,VALID,97.0997,VALID,105.791,VALID,20.2661,VALID,180,VALID,0.539634,
2007-12-21, 07:39:00,VALID,918.259,VALID,0,VALID,96.9993,VALID,106.826,VALID,20.3145,VALID,180,VALID,0.22237,
2007-12-21, 07:40:00,VALID,918.27,VALID,0,VALID,96.6865,VALID,107.879,VALID,20.3408,VALID,175,VALID,0.771577,
2007-12-21, 07:41:00,VALID,918.297,VALID,0,VALID,96.3355,VALID,108.983,VALID,20.3467,VALID,175,VALID,0.616477,
2007-12-21, 07:42:00,VALID,918.305,VALID,0,VALID,96.0214,VALID,110.257,VALID,20.3567,VALID,152,VALID,0.537919,
2007-12-21, 07:43:00,VALID,918.324,VALID,0,VALID,96.1994,VALID,111.089,VALID,20.3922,VALID,148,VALID,0.0416667,
2007-12-21, 07:44:00,VALID,918.33,VALID,0,VALID,96.0176,VALID,111.785,VALID,20.4376,VALID,173,VALID,0.44668,
2007-12-21, 07:45:00,VALID,918.352,VALID,0,VALID,95.8332,VALID,112.515,VALID,20.4963,VALID,173,VALID,0.505208,
2007-12-21, 07:46:00,VALID,918.357,VALID,0,VALID,95.7327,VALID,113.381,VALID,20.5287,VALID,162,VALID,0.363621,
2007-12-21, 07:47:00,VALID,918.376,VALID,0,VALID,95.6463,VALID,114.213,VALID,20.5509,VALID,157,VALID,0.365625,
2007-12-21, 07:48:00,VALID,918.391,VALID,0,VALID,94.9927,VALID,115.555,VALID,20.5482,VALID,174,VALID,0.748828,
2007-12-21, 07:49:00,VALID,918.408,VALID,0,VALID,94.7142,VALID,118.017,VALID,20.519,VALID,167,VALID,0.71657,
2007-12-21, 07:50:00,VALID,918.432,VALID,0,VALID,94.952,VALID,120.598,VALID,20.5122,VALID,182,VALID,0.531822,
2007-12-21, 07:51:00,VALID,918.45,VALID,0,VALID,94.9939,VALID,123.094,VALID,20.5739,VALID,183,VALID,0.107955,
2007-12-21, 07:52:00,VALID,918.456,VALID,0,VALID,94.9113,VALID,124.758,VALID,20.6423,VALID,183,VALID,0,
2007-12-21, 07:53:00,VALID,918.461,VALID,0,VALID,94.7396,VALID,126.49,VALID,20.6975,VALID,183,VALID,0.0450149,
2007-12-21, 07:54:00,VALID,918.476,VALID,0,VALID,94.6404,VALID,128.511,VALID,20.7654,VALID,182,VALID,0.423473,
2007-12-21, 07:55:00,VALID,918.485,VALID,0,VALID,94.3785,VALID,130.82,VALID,20.8176,VALID,172,VALID,0.730808,
2007-12-21, 07:56:00,VALID,918.5,VALID,0,VALID,94.2729,VALID,133.894,VALID,20.847,VALID,167,VALID,0.926172,
2007-12-21, 07:57:00,VALID,918.504,VALID,0,VALID,94.4993,VALID,137.562,VALID,20.8468,VALID,162,VALID,0.761161,
2007-12-21, 07:58:00,VALID,918.523,VALID,0,VALID,94.5781,VALID,140.89,VALID,20.8697,VALID,178,VALID,0.383575,
2007-12-21, 07:59:00,VALID,918.533,VALID,0,VALID,94.6557,VALID,138.343,VALID,20.9025,VALID,147,VALID,0.328835,
2007-12-21, 08:00:00,VALID,918.558,VALID,0,VALID,94.5336,VALID,141.96,VALID,20.9417,VALID,141,VALID,0.420058,
2007-12-21, 08:01:00,VALID,918.569,VALID,0,VALID,94.1127,VALID,143.42,VALID,20.9282,VALID,149,VALID,0.782552,
2007-12-21, 08:02:00,VALID,918.593,VALID,0,VALID,94.2475,VALID,147.394,VALID,20.9084,VALID,149,VALID,0.806216,
2007-12-21, 08:03:00,VALID,918.61,VALID,0,VALID,94.3505,VALID,150.688,VALID,20.9254,VALID,151,VALID,0.469893,
2007-12-21, 08:04:00,VALID,918.629,VALID,0,VALID,93.7745,VALID,151.724,VALID,20.9252,VALID,150,VALID,1.0726,
2007-12-21, 08:05:00,VALID,918.641,VALID,0,VALID,93.5914,VALID,150.739,VALID,20.8857,VALID,143,VALID,0.930233,
2007-12-21, 08:06:00,VALID,918.659,VALID,0,VALID,93.8025,VALID,154.271,VALID,20.903,VALID,152,VALID,1.01708,
2007-12-21, 08:07:00,VALID,918.666,VALID,0,VALID,93.4095,VALID,156.903,VALID,20.8803,VALID,164,VALID,1.04874,
2007-12-21, 08:08:00,VALID,918.68,VALID,0,VALID,93.3281,VALID,161.759,VALID,20.8638,VALID,170,VALID,1.04297,
2007-12-21, 08:09:00,VALID,918.689,VALID,0,VALID,93.5062,VALID,170.233,VALID,20.8897,VALID,148,VALID,0.703658,
2007-12-21, 08:10:00,VALID,918.716,VALID,0,VALID,93.3459,VALID,174.682,VALID,20.9152,VALID,140,VALID,0.522195,
2007-12-21, 08:11:00,VALID,918.731,VALID,0,VALID,93.6766,VALID,177.076,VALID,20.9869,VALID,151,VALID,0.521984,
2007-12-21, 08:12:00,VALID,918.758,VALID,0,VALID,93.5214,VALID,177.806,VALID,21.0812,VALID,147,VALID,1.04506,
2007-12-21, 08:13:00,VALID,918.774,VALID,0,VALID,92.6326,VALID,179.233,VALID,21.0518,VALID,158,VALID,1.21384,
2007-12-21, 08:14:00,VALID,918.806,VALID,0,VALID,93.1412,VALID,184.021,VALID,21.0753,VALID,149,VALID,1.01523,
2007-12-21, 08:15:00,VALID,918.811,VALID,0,VALID,93.421,VALID,187.757,VALID,21.1077,VALID,159,VALID,0.991824,
2007-12-21, 08:16:00,VALID,918.818,VALID,0,VALID,92.8704,VALID,188.266,VALID,21.0945,VALID,162,VALID,1.06045,
2007-12-21, 08:17:00,VALID,918.824,VALID,0,VALID,93.215,VALID,187.927,VALID,21.098,VALID,168,VALID,0.603379,
2007-12-21, 08:18:00,VALID,918.819,VALID,0,VALID,93.5952,VALID,183.053,VALID,21.1854,VALID,156,VALID,0.460392,
2007-12-21, 08:19:00,VALID,918.823,VALID,0,VALID,93.6232,VALID,178.689,VALID,21.25,VALID,142,VALID,0.292708,
2007-12-21, 08:20:00,VALID,918.83,VALID,0,VALID,93.5176,VALID,180.031,VALID,21.3315,VALID,152,VALID,0.464757,
2007-12-21, 08:21:00,VALID,918.828,VALID,0,VALID,93.4693,VALID,178.469,VALID,21.4164,VALID,173,VALID,0.462209,
2007-12-21, 08:22:00,VALID,918.821,VALID,0,VALID,93.0382,VALID,175.191,VALID,21.4811,VALID,162,VALID,0.860176,
2007-12-21, 08:23:00,VALID,918.826,VALID,0,VALID,92.7839,VALID,181.27,VALID,21.517,VALID,163,VALID,0.355183,
2007-12-21, 08:24:00,VALID,918.828,VALID,0,VALID,92.7445,VALID,180.065,VALID,21.5687,VALID,143,VALID,0.521802,
2007-12-21, 08:25:00,VALID,918.833,VALID,0,VALID,92.5474,VALID,178.061,VALID,21.5717,VALID,156,VALID,0.738839,
2007-12-21, 08:26:00,VALID,918.831,VALID,0,VALID,92.2117,VALID,173.51,VALID,21.5903,VALID,147,VALID,0.691761,
2007-12-21, 08:27:00,VALID,918.846,VALID,0,VALID,91.7628,VALID,178.418,VALID,21.5865,VALID,146,VALID,0.676136,
2007-12-21, 08:28:00,VALID,918.84,VALID,0,VALID,91.3266,VALID,177.501,VALID,21.5865,VALID,133,VALID,0.753089,
2007-12-21, 08:29:00,VALID,918.839,VALID,0,VALID,91.2389,VALID,178.01,VALID,21.5446,VALID,124,VALID,0.644985,
2007-12-21, 08:30:00,VALID,918.847,VALID,0,VALID,91.9777,VALID,179.64,VALID,21.5706,VALID,143,VALID,0.306286,
2007-12-21, 08:31:00,VALID,918.856,VALID,0,VALID,91.7844,VALID,173.221,VALID,21.6515,VALID,139,VALID,0.17951,
2007-12-21, 08:32:00,VALID,918.869,VALID,0,VALID,91.1486,VALID,184.667,VALID,21.7329,VALID,130,VALID,0.296113,
2007-12-21, 08:33:00,VALID,918.887,VALID,0,VALID,90.6056,VALID,186.857,VALID,21.8557,VALID,143,VALID,0.332031,
2007-12-21, 08:34:00,VALID,918.891,VALID,0,VALID,89.8757,VALID,187.163,VALID,21.9239,VALID,143,VALID,0.601376,
2007-12-21, 08:35:00,VALID,918.908,VALID,0,VALID,89.5922,VALID,163.152,VALID,21.9693,VALID,147,VALID,0.77793,
2007-12-21, 08:36:01,VALID,918.904,VALID,0,VALID,88.7974,VALID,150.348,VALID,21.9244,VALID,141,VALID,0.817827,
2007-12-21, 08:37:00,VALID,918.913,VALID,0,VALID,89.5629,VALID,172.627,VALID,21.9055,VALID,139,VALID,0.569931,
2007-12-21, 08:38:01,VALID,918.917,VALID,0,VALID,89.5057,VALID,184.989,VALID,21.9342,VALID,146,VALID,0.467607,
2007-12-21, 08:39:00,VALID,918.93,VALID,0,VALID,88.6054,VALID,174.189,VALID,22.0151,VALID,141,VALID,0.335211,
2007-12-21, 08:40:00,VALID,918.932,VALID,0,VALID,87.5512,VALID,206.419,VALID,22.1452,VALID,141,VALID,0.213141,
2007-12-21, 08:41:01,VALID,918.946,VALID,0,VALID,86.8023,VALID,224.3,VALID,22.3563,VALID,141,VALID,0,
2007-12-21, 08:42:00,VALID,918.955,VALID,0,VALID,85.8765,VALID,204.194,VALID,22.6745,VALID,161,VALID,0.360547,
2007-12-21, 08:43:00,VALID,918.957,VALID,0,VALID,83.6805,VALID,236.594,VALID,22.856,VALID,175,VALID,0.609738,
2007-12-21, 08:44:00,VALID,918.966,VALID,0,VALID,82.5538,VALID,231.534,VALID,22.97,VALID,167,VALID,0.186592,
2007-12-21, 08:45:01,VALID,918.981,VALID,0,VALID,82.5755,VALID,421.838,VALID,23.1749,VALID,167,VALID,0,
2007-12-21, 08:46:01,VALID,918.97,VALID,0,VALID,81.4844,VALID,386.144,VALID,23.5218,VALID,167,VALID,0,
2007-12-21, 08:47:01,VALID,918.986,VALID,0,VALID,80.1264,VALID,356.597,VALID,23.7974,VALID,141,VALID,0.144436,
2007-12-21, 08:48:00,VALID,918.979,VALID,0,VALID,79.4575,VALID,334.607,VALID,23.9628,VALID,29,VALID,0.136433,
2007-12-21, 08:49:00,VALID,918.97,VALID,0,VALID,79.2756,VALID,245.882,VALID,24.1229,VALID,97,VALID,0.234933,
2007-12-21, 08:50:00,VALID,918.974,VALID,0,VALID,78.7136,VALID,300.085,VALID,24.1872,VALID,120,VALID,0.771621,
2007-12-21, 08:51:01,VALID,918.967,VALID,0,VALID,79.6889,VALID,268.093,VALID,23.9637,VALID,57,VALID,1.02801,
2007-12-21, 08:52:00,VALID,918.975,VALID,0,VALID,80.5498,VALID,244.252,VALID,23.7817,VALID,40,VALID,0.788477,
2007-12-21, 08:53:00,VALID,918.981,VALID,0,VALID,80.6032,VALID,277.671,VALID,23.8042,VALID,26,VALID,0.519737,
2007-12-21, 08:54:00,VALID,918.967,VALID,0,VALID,80.1416,VALID,247.496,VALID,23.8133,VALID,45,VALID,0.423399,
2007-12-21, 08:55:01,VALID,918.966,VALID,0,VALID,79.8072,VALID,287.723,VALID,23.7817,VALID,66,VALID,0.735618,
2007-12-21, 08:56:00,VALID,918.973,VALID,0,VALID,81.9231,VALID,518.272,VALID,23.6208,VALID,73,VALID,0.622332,
2007-12-21, 08:57:01,VALID,918.969,VALID,0,VALID,83.257,VALID,577.603,VALID,23.5723,VALID,71,VALID,0.833789,
2007-12-21, 08:58:00,VALID,918.98,VALID,0,VALID,82.7497,VALID,590.508,VALID,23.5853,VALID,91,VALID,1.04446,
2007-12-21, 08:59:00,VALID,918.996,VALID,0,VALID,79.8288,VALID,630.244,VALID,23.7903,VALID,143,VALID,0.20503,
2007-12-21, 09:00:00,VALID,919.004,VALID,0,VALID,79.1968,VALID,637.953,VALID,24.2474,VALID,46,VALID,0.381541,
2007-12-21, 09:01:00,VALID,918.991,VALID,0,VALID,79.4753,VALID,623.349,VALID,24.4953,VALID,25,VALID,0.710751,
2007-12-21, 09:02:01,VALID,918.99,VALID,0,VALID,79.4422,VALID,617.236,VALID,24.5632,VALID,17,VALID,0.795967,
2007-12-21, 09:03:00,VALID,918.983,VALID,0,VALID,78.5432,VALID,578.418,VALID,24.6191,VALID,45,VALID,0.745536,
2007-12-21, 09:04:01,VALID,918.978,VALID,0,VALID,78.8954,VALID,472.22,VALID,24.5443,VALID,23,VALID,0.63891,
2007-12-21, 09:05:01,VALID,918.988,VALID,0,VALID,78.3779,VALID,412.787,VALID,24.5378,VALID,87,VALID,0.49657,
2007-12-21, 09:06:00,VALID,918.994,VALID,0,VALID,79.0061,VALID,432.451,VALID,24.5242,VALID,85,VALID,0.701629,
2007-12-21, 09:07:01,VALID,918.997,VALID,0,VALID,79.3799,VALID,444.762,VALID,24.4339,VALID,82,VALID,0.334413,
2007-12-21, 09:08:01,VALID,919.003,VALID,0,VALID,79.4155,VALID,440.211,VALID,24.428,VALID,61,VALID,0.842221,
2007-12-21, 09:09:00,VALID,919.005,VALID,0,VALID,79.9178,VALID,353.728,VALID,24.3039,VALID,59,VALID,0.729833,
2007-12-21, 09:10:00,VALID,919.007,VALID,0,VALID,79.9877,VALID,339.922,VALID,24.4182,VALID,51,VALID,0.303925,
2007-12-21, 09:11:00,VALID,919.015,VALID,0,VALID,79.6826,VALID,432.57,VALID,24.568,VALID,31,VALID,0.670732,
2007-12-21, 09:12:00,VALID,919.019,VALID,0,VALID,75.9262,VALID,428.715,VALID,24.6961,VALID,335,VALID,0.634993,
2007-12-21, 09:13:00,VALID,919,VALID,0,VALID,74.8047,VALID,459.569,VALID,24.7709,VALID,331,VALID,0.351357,
2007-12-21, 09:14:00,VALID,919.01,VALID,0,VALID,74.2121,VALID,498.421,VALID,24.9157,VALID,301,VALID,0.255814,
2007-12-21, 09:15:01,VALID,919,VALID,0,VALID,74.7144,VALID,620.089,VALID,25.1468,VALID,322,VALID,0.186899,
2007-12-21, 09:16:00,VALID,918.99,VALID,0,VALID,73.3169,VALID,635.915,VALID,25.3737,VALID,313,VALID,0.742188,
2007-12-21, 09:17:01,VALID,918.989,VALID,0,VALID,72.9558,VALID,579.301,VALID,25.3122,VALID,341,VALID,1.20712,
2007-12-21, 09:18:00,VALID,918.987,VALID,0,VALID,73.1821,VALID,529.955,VALID,25.2082,VALID,338,VALID,1.07439,
2007-12-21, 09:19:01,VALID,918.992,VALID,0,VALID,73.8764,VALID,502.785,VALID,25.1306,VALID,309,VALID,0.550876,
2007-12-21, 09:20:01,VALID,918.978,VALID,0,VALID,74.1206,VALID,527.51,VALID,25.0688,VALID,312,VALID,0.132227,
2007-12-21, 09:21:00,VALID,918.981,VALID,0,VALID,74.188,VALID,538.513,VALID,25.0106,VALID,33,VALID,0.351199,
2007-12-21, 09:22:00,VALID,918.975,VALID,0,VALID,74.9064,VALID,519.427,VALID,25.0724,VALID,33,VALID,0.476918,
2007-12-21, 09:23:00,VALID,918.986,VALID,0,VALID,74.6877,VALID,508.712,VALID,25.2706,VALID,36,VALID,0.394431,
2007-12-21, 09:24:01,VALID,918.983,VALID,0,VALID,75.1378,VALID,520.462,VALID,25.5274,VALID,120,VALID,0.418527,
2007-12-21, 09:25:01,VALID,918.987,VALID,0,VALID,73.205,VALID,539.226,VALID,25.8307,VALID,221,VALID,0.624822,
2007-12-21, 09:26:00,VALID,918.991,VALID,0,VALID,72.7663,VALID,517.253,VALID,25.8564,VALID,253,VALID,0.382068,
2007-12-21, 09:27:01,VALID,918.995,VALID,0,VALID,73.5547,VALID,482.867,VALID,25.7878,VALID,295,VALID,0.822798,
2007-12-21, 09:28:01,VALID,918.991,VALID,0,VALID,72.9367,VALID,503.363,VALID,25.6119,VALID,264,VALID,0.541602,
2007-12-21, 09:29:01,VALID,919.006,VALID,0,VALID,73.4542,VALID,510.087,VALID,25.4891,VALID,262,VALID,0.59266,
2007-12-21, 09:30:01,VALID,919.002,VALID,0,VALID,73.7531,VALID,518.068,VALID,25.3463,VALID,278,VALID,0.761364,
2007-12-21, 09:31:01,VALID,919.008,VALID,0,VALID,74.6254,VALID,631.449,VALID,25.1741,VALID,278,VALID,0.574826,
2007-12-21, 09:32:01,VALID,919.015,VALID,0,VALID,75.5384,VALID,686.178,VALID,25.1084,VALID,331,VALID,0.565549,
2007-12-21, 09:33:01,VALID,919.016,VALID,0,VALID,75.4939,VALID,621.6,VALID,25.1702,VALID,360,VALID,0.31891,
2007-12-21, 09:34:01,VALID,919.019,VALID,0,VALID,73.6068,VALID,584.684,VALID,25.3854,VALID,344,VALID,0.988095,
2007-12-21, 09:35:01,VALID,919.034,VALID,0,VALID,71.7147,VALID,541.96,VALID,25.359,VALID,351,VALID,1.15955,
2007-12-21, 09:36:01,VALID,919.042,VALID,0,VALID,71.688,VALID,532.451,VALID,25.3103,VALID,330,VALID,0.913707,
2007-12-21, 09:37:01,VALID,919.062,VALID,0,VALID,72.2055,VALID,526.219,VALID,25.2358,VALID,313,VALID,0.552144,
2007-12-21, 09:38:01,VALID,919.07,VALID,0,VALID,73.0778,VALID,527.374,VALID,25.2007,VALID,295,VALID,0.609175,
2007-12-21, 09:39:01,VALID,919.085,VALID,0,VALID,72.9939,VALID,524.385,VALID,25.1936,VALID,268,VALID,0.837109,
2007-12-21, 09:40:00,VALID,919.091,VALID,0,VALID,73.5343,VALID,509.968,VALID,25.1585,VALID,296,VALID,0.737464,
2007-12-21, 09:41:00,VALID,919.101,VALID,0,VALID,73.5522,VALID,476.873,VALID,25.1289,VALID,306,VALID,0.734747,
2007-12-21, 09:42:00,VALID,919.094,VALID,0,VALID,73.9438,VALID,445.662,VALID,25.1026,VALID,300,VALID,0.405869,
2007-12-21, 09:43:00,VALID,919.1,VALID,0,VALID,74.7297,VALID,494.77,VALID,25.1718,VALID,338,VALID,0.617578,
2007-12-21, 09:44:00,VALID,919.1,VALID,0,VALID,73.631,VALID,563.679,VALID,25.3437,VALID,344,VALID,0.818714,
2007-12-21, 09:45:00,VALID,919.102,VALID,0,VALID,72.3251,VALID,486.739,VALID,25.3854,VALID,320,VALID,0.484012,
2007-12-21, 09:46:00,VALID,919.085,VALID,0,VALID,72.0631,VALID,537.104,VALID,25.5222,VALID,260,VALID,0.816992,
2007-12-21, 09:47:00,VALID,919.084,VALID,0,VALID,72.3746,VALID,486.84,VALID,25.5524,VALID,311,VALID,0.944382,
2007-12-21, 09:48:00,VALID,919.084,VALID,0,VALID,73.2622,VALID,439.566,VALID,25.451,VALID,262,VALID,0.684375,
2007-12-21, 09:49:00,VALID,919.073,VALID,0,VALID,73.3919,VALID,429.411,VALID,25.4799,VALID,243,VALID,0.795603,
2007-12-21, 09:50:00,VALID,919.083,VALID,0,VALID,74.6915,VALID,443.115,VALID,25.425,VALID,283,VALID,0.623242,
2007-12-21, 09:51:00,VALID,919.074,VALID,0,VALID,74.8543,VALID,465.258,VALID,25.386,VALID,249,VALID,1.01474,
2007-12-21, 09:52:00,VALID,919.082,VALID,0,VALID,74.8759,VALID,459.433,VALID,25.2595,VALID,258,VALID,1.3367,
2007-12-21, 09:53:00,VALID,919.077,VALID,0,VALID,75.4049,VALID,494.142,VALID,25.0577,VALID,260,VALID,1.40168,
2007-12-21, 09:54:00,VALID,919.078,VALID,0,VALID,76.4451,VALID,540.992,VALID,24.9147,VALID,241,VALID,1.00302,
2007-12-21, 09:55:00,VALID,919.078,VALID,0,VALID,77.0287,VALID,535.592,VALID,24.8984,VALID,244,VALID,1.51934,
2007-12-21, 09:56:00,VALID,919.085,VALID,0,VALID,76.8634,VALID,512.974,VALID,24.9144,VALID,262,VALID,0.999619,
2007-12-21, 09:57:00,VALID,919.084,VALID,0,VALID,76.9779,VALID,626.559,VALID,24.9427,VALID,254,VALID,1.27046,
2007-12-21, 09:58:00,VALID,919.085,VALID,0,VALID,76.5608,VALID,761.777,VALID,24.9941,VALID,270,VALID,1.29651,
2007-12-21, 09:59:00,VALID,919.083,VALID,0,VALID,76.3052,VALID,687.69,VALID,25.0532,VALID,265,VALID,1.40141,
2007-12-21, 10:00:00,VALID,919.074,VALID,0,VALID,76.145,VALID,523.808,VALID,25.0821,VALID,250,VALID,1.50572,
2007-12-21, 10:01:00,VALID,919.087,VALID,0,VALID,76.2467,VALID,512.498,VALID,25.1539,VALID,249,VALID,1.23609,
2007-12-21, 10:02:00,VALID,919.083,VALID,0,VALID,76.2569,VALID,587.146,VALID,25.2449,VALID,244,VALID,1.12081,
2007-12-21, 10:03:00,VALID,919.072,VALID,0,VALID,76.3179,VALID,749.466,VALID,25.2615,VALID,262,VALID,2.2282,
2007-12-21, 10:04:00,VALID,919.079,VALID,0,VALID,78.0422,VALID,586.501,VALID,25.1708,VALID,266,VALID,1.10085,
2007-12-21, 10:05:00,VALID,919.08,VALID,0,VALID,76.6002,VALID,579.403,VALID,25.1897,VALID,269,VALID,1.57813,
2007-12-21, 10:06:00,VALID,919.083,VALID,0,VALID,76.7197,VALID,612.091,VALID,25.0334,VALID,268,VALID,1.57515,
2007-12-21, 10:07:00,VALID,919.07,VALID,0,VALID,77.1648,VALID,637.902,VALID,24.9625,VALID,287,VALID,1.55716,
2007-12-21, 10:08:00,VALID,919.052,VALID,0,VALID,76.2327,VALID,663.441,VALID,24.8292,VALID,265,VALID,2.55227,
2007-12-21, 10:09:00,VALID,919.048,VALID,0,VALID,78.21,VALID,651.453,VALID,24.6564,VALID,252,VALID,1.51602,
2007-12-21, 10:10:00,VALID,919.032,VALID,0,VALID,79.5274,VALID,697.505,VALID,24.8689,VALID,338,VALID,0.543255,
2007-12-21, 10:11:00,VALID,919.05,VALID,0,VALID,78.1325,VALID,872.051,VALID,25.2943,VALID,236,VALID,0.822856,
2007-12-21, 10:12:00,VALID,919.033,VALID,0,VALID,74.8492,VALID,672.594,VALID,25.583,VALID,254,VALID,1.14971,
2007-12-21, 10:13:00,VALID,919.039,VALID,0,VALID,76.3497,VALID,736.119,VALID,25.701,VALID,291,VALID,1.04018,
2007-12-21, 10:14:00,VALID,919.04,VALID,0,VALID,76.8164,VALID,1046.78,VALID,25.9188,VALID,277,VALID,0.703125,
2007-12-21, 10:15:00,VALID,919.027,VALID,0,VALID,73.9476,VALID,938.497,VALID,26.361,VALID,249,VALID,0.763263,
2007-12-21, 10:16:00,VALID,919.036,VALID,0,VALID,70.7686,VALID,984.379,VALID,26.7053,VALID,186,VALID,0.556556,
2007-12-21, 10:17:00,VALID,919.032,VALID,0,VALID,70.2816,VALID,765.394,VALID,26.6851,VALID,35,VALID,1.16328,
2007-12-21, 10:18:00,VALID,919.045,VALID,0,VALID,71.3892,VALID,1037.1,VALID,26.6796,VALID,326,VALID,0.425272,
2007-12-21, 10:19:00,VALID,919.064,VALID,0,VALID,67.6964,VALID,1070.74,VALID,27.0312,VALID,270,VALID,0.847834,
2007-12-21, 10:20:00,VALID,919.07,VALID,0,VALID,67.4078,VALID,1070.51,VALID,27.187,VALID,24,VALID,0.630766,
2007-12-21, 10:21:00,VALID,919.058,VALID,0,VALID,67.6239,VALID,1067.91,VALID,27.4826,VALID,25,VALID,1.42024,
2007-12-21, 10:22:00,VALID,919.056,VALID,0,VALID,65.6161,VALID,1035.92,VALID,27.5809,VALID,14,VALID,1.58477,
2007-12-21, 10:23:00,VALID,919.066,VALID,0,VALID,66.4045,VALID,1043.79,VALID,27.8968,VALID,6,VALID,0.931176,
2007-12-21, 10:24:00,VALID,919.06,VALID,0,VALID,63.5853,VALID,915.165,VALID,28.1653,VALID,64,VALID,0.712391,
2007-12-21, 10:25:00,VALID,919.07,VALID,0,VALID,63.4632,VALID,1087.61,VALID,28.439,VALID,65,VALID,0.0699574,
2007-12-21, 10:26:00,VALID,919.075,VALID,0,VALID,63.977,VALID,777.603,VALID,28.9636,VALID,8,VALID,1.10098,
2007-12-21, 10:27:00,VALID,919.054,VALID,0,VALID,59.4628,VALID,1019.02,VALID,29.2257,VALID,22,VALID,0.914418,
2007-12-21, 10:28:00,VALID,919.062,VALID,0,VALID,60.2079,VALID,1072.44,VALID,29.4781,VALID,357,VALID,1.11756,
2007-12-21, 10:29:00,VALID,919.07,VALID,0,VALID,59.464,VALID,917.831,VALID,29.3809,VALID,2,VALID,1.31343,
2007-12-21, 10:30:00,VALID,919.041,VALID,0,VALID,60.2868,VALID,708.152,VALID,29.1104,VALID,7,VALID,1.79688,
2007-12-21, 10:31:00,VALID,919.055,VALID,0,VALID,63.4798,VALID,551.486,VALID,28.8085,VALID,17,VALID,1.69495,
2007-12-21, 10:32:00,VALID,919.06,VALID,0,VALID,62.8046,VALID,952.743,VALID,28.8808,VALID,19,VALID,1.00345,
2007-12-21, 10:33:00,VALID,919.053,VALID,0,VALID,62.7321,VALID,1009.49,VALID,28.8649,VALID,357,VALID,1.99288,
2007-12-21, 10:34:00,VALID,919.071,VALID,0,VALID,62.3658,VALID,1123.04,VALID,28.6989,VALID,14,VALID,1.5372,